contact:dominique.lefevre@mio.osupytheas.fr, maurice.libes@osupytheas.fr, didier.mallarino@osupytheas.fr
Project:EMSO http://www.emso-fr.org/EMSO-France
Depth: 2436.0 m
Title:EMSO Ligure Ouest : Data MII capteur MICROCAT
DateTime_Computer,Latitude,Longitude,Temperature,Conductivity,Pressure,DateTime_Instrument
DateTime_Computer,Latitude,Longitude,degC,S m-1,dbar,DateTime_Instrument
2023-10-30T00:02:48Z,42.805,6.029,13.3037,4.60112,2470.787,2023-10-30T02:05:14Z
2023-10-30T00:05:51Z,42.805,6.029,13.3029,4.60102,2470.74,2023-10-30T02:08:17Z
2023-10-30T00:08:55Z,42.805,6.029,13.3037,4.60110,2470.777,2023-10-30T02:11:20Z
2023-10-30T00:11:58Z,42.805,6.029,13.3034,4.60108,2470.763,2023-10-30T02:14:23Z
2023-10-30T00:15:01Z,42.805,6.029,13.3031,4.60103,2470.74,2023-10-30T02:17:26Z
2023-10-30T00:18:04Z,42.805,6.029,13.3039,4.60114,2470.75,2023-10-30T02:20:30Z
2023-10-30T00:21:07Z,42.805,6.029,13.3029,4.60104,2470.754,2023-10-30T02:23:33Z
2023-10-30T00:24:10Z,42.805,6.029,13.3037,4.60110,2470.754,2023-10-30T02:26:36Z
2023-10-30T00:27:13Z,42.805,6.029,13.3032,4.60107,2470.74,2023-10-30T02:29:39Z
2023-10-30T00:30:16Z,42.805,6.029,13.3035,4.60108,2470.717,2023-10-30T02:32:42Z
2023-10-30T00:33:19Z,42.805,6.029,13.3036,4.60124,2470.754,2023-10-30T02:35:45Z
2023-10-30T00:36:22Z,42.805,6.029,13.3036,4.60118,2470.74,2023-10-30T02:38:48Z
2023-10-30T00:39:25Z,42.805,6.029,13.3032,4.60110,2470.763,2023-10-30T02:41:51Z
2023-10-30T00:42:28Z,42.805,6.029,13.3036,4.60116,2470.717,2023-10-30T02:44:54Z
2023-10-30T00:45:32Z,42.805,6.029,13.3036,4.60111,2470.717,2023-10-30T02:47:57Z
2023-10-30T00:48:35Z,42.805,6.029,13.3038,4.60110,2470.754,2023-10-30T02:51:00Z
2023-10-30T00:51:38Z,42.805,6.029,13.3031,4.60104,2470.717,2023-10-30T02:54:03Z
2023-10-30T00:54:41Z,42.805,6.029,13.3031,4.60115,2470.73,2023-10-30T02:57:07Z
2023-10-30T00:57:44Z,42.805,6.029,13.3033,4.60108,2470.73,2023-10-30T03:00:10Z
2023-10-30T01:00:47Z,42.805,6.029,13.3030,4.60106,2470.703,2023-10-30T03:03:13Z
2023-10-30T01:03:50Z,42.805,6.029,13.3034,4.60110,2470.717,2023-10-30T03:06:16Z
2023-10-30T01:06:53Z,42.805,6.029,13.3033,4.60112,2470.73,2023-10-30T03:09:19Z
2023-10-30T01:09:56Z,42.805,6.029,13.3034,4.60110,2470.717,2023-10-30T03:12:22Z
2023-10-30T01:12:59Z,42.805,6.029,13.3033,4.60110,2470.73,2023-10-30T03:15:25Z
2023-10-30T01:16:02Z,42.805,6.029,13.3038,4.60114,2470.73,2023-10-30T03:18:28Z
2023-10-30T01:19:05Z,42.805,6.029,13.3033,4.60109,2470.74,2023-10-30T03:21:31Z
2023-10-30T01:22:08Z,42.805,6.029,13.3032,4.60106,2470.73,2023-10-30T03:24:34Z
2023-10-30T01:25:11Z,42.805,6.029,13.3039,4.60110,2470.74,2023-10-30T03:27:37Z
2023-10-30T01:28:15Z,42.805,6.029,13.3034,4.60107,2470.717,2023-10-30T03:30:40Z
2023-10-30T01:31:18Z,42.805,6.029,13.3043,4.60128,2470.73,2023-10-30T03:33:43Z
2023-10-30T01:34:21Z,42.805,6.029,13.3040,4.60134,2470.754,2023-10-30T03:36:47Z
2023-10-30T01:37:24Z,42.805,6.029,13.3039,4.60127,2470.693,2023-10-30T03:39:50Z
2023-10-30T01:40:27Z,42.805,6.029,13.3042,4.60121,2470.717,2023-10-30T03:42:53Z
2023-10-30T01:43:30Z,42.805,6.029,13.3041,4.60120,2470.717,2023-10-30T03:45:56Z
2023-10-30T01:46:33Z,42.805,6.029,13.3034,4.60106,2470.717,2023-10-30T03:48:59Z
2023-10-30T01:49:36Z,42.805,6.029,13.3036,4.60104,2470.717,2023-10-30T03:52:02Z
2023-10-30T01:52:39Z,42.805,6.029,13.3034,4.60111,2470.717,2023-10-30T03:55:05Z
2023-10-30T01:55:42Z,42.805,6.029,13.3039,4.60109,2470.707,2023-10-30T03:58:08Z
2023-10-30T01:58:45Z,42.805,6.029,13.3032,4.60109,2470.73,2023-10-30T04:01:11Z
2023-10-30T02:01:48Z,42.805,6.029,13.3035,4.60105,2470.67,2023-10-30T04:04:14Z
2023-10-30T02:04:52Z,42.805,6.029,13.3032,4.60110,2470.693,2023-10-30T04:07:17Z
2023-10-30T02:07:55Z,42.805,6.029,13.3041,4.60117,2470.703,2023-10-30T04:10:20Z
2023-10-30T02:10:58Z,42.805,6.029,13.3034,4.60117,2470.717,2023-10-30T04:13:23Z
2023-10-30T02:14:01Z,42.805,6.029,13.3041,4.60116,2470.717,2023-10-30T04:16:27Z
2023-10-30T02:17:04Z,42.805,6.029,13.3037,4.60117,2470.693,2023-10-30T04:19:30Z
2023-10-30T02:20:07Z,42.805,6.029,13.3036,4.60111,2470.693,2023-10-30T04:22:33Z
2023-10-30T02:23:10Z,42.805,6.029,13.3043,4.60118,2470.707,2023-10-30T04:25:36Z
2023-10-30T02:26:13Z,42.805,6.029,13.3038,4.60111,2470.707,2023-10-30T04:28:39Z
2023-10-30T02:29:16Z,42.805,6.029,13.3038,4.60110,2470.693,2023-10-30T04:31:42Z
2023-10-30T02:32:19Z,42.805,6.029,13.3039,4.60132,2470.717,2023-10-30T04:34:45Z
2023-10-30T02:35:22Z,42.805,6.029,13.3036,4.60109,2470.74,2023-10-30T04:37:48Z
2023-10-30T02:38:25Z,42.805,6.029,13.3031,4.60110,2470.73,2023-10-30T04:40:51Z
2023-10-30T02:41:28Z,42.805,6.029,13.3046,4.60141,2470.693,2023-10-30T04:43:54Z
2023-10-30T02:44:32Z,42.805,6.029,13.3031,4.60110,2470.693,2023-10-30T04:46:57Z
2023-10-30T02:47:35Z,42.805,6.029,13.3031,4.60108,2470.717,2023-10-30T04:50:00Z
2023-10-30T02:50:38Z,42.805,6.029,13.3035,4.60117,2470.717,2023-10-30T04:53:04Z
2023-10-30T02:53:41Z,42.805,6.029,13.3036,4.60116,2470.707,2023-10-30T04:56:07Z
2023-10-30T02:56:44Z,42.805,6.029,13.3046,4.60121,2470.73,2023-10-30T04:59:10Z
2023-10-30T02:59:47Z,42.805,6.029,13.3051,4.60140,2470.717,2023-10-30T05:02:13Z
2023-10-30T03:02:50Z,42.805,6.029,13.3034,4.60119,2470.717,2023-10-30T05:05:16Z
2023-10-30T03:05:53Z,42.805,6.029,13.3029,4.60108,2470.717,2023-10-30T05:08:19Z
2023-10-30T03:08:56Z,42.805,6.029,13.3034,4.60117,2470.717,2023-10-30T05:11:22Z
2023-10-30T03:11:59Z,42.805,6.029,13.3048,4.60142,2470.73,2023-10-30T05:14:25Z
2023-10-30T03:15:02Z,42.805,6.029,13.3046,4.60130,2470.717,2023-10-30T05:17:28Z
2023-10-30T03:18:05Z,42.805,6.029,13.3035,4.60109,2470.717,2023-10-30T05:20:31Z
2023-10-30T03:21:09Z,42.805,6.029,13.3042,4.60123,2470.693,2023-10-30T05:23:34Z
2023-10-30T03:24:12Z,42.805,6.029,13.3037,4.60111,2470.717,2023-10-30T05:26:37Z
2023-10-30T03:27:15Z,42.805,6.029,13.3039,4.60113,2470.693,2023-10-30T05:29:40Z
2023-10-30T03:30:18Z,42.805,6.029,13.3046,4.60123,2470.726,2023-10-30T05:32:44Z
2023-10-30T03:33:21Z,42.805,6.029,13.3038,4.60114,2470.74,2023-10-30T05:35:47Z
2023-10-30T03:36:24Z,42.805,6.029,13.3033,4.60107,2470.754,2023-10-30T05:38:50Z
2023-10-30T03:39:27Z,42.805,6.029,13.3034,4.60110,2470.717,2023-10-30T05:41:53Z
2023-10-30T03:42:30Z,42.805,6.029,13.3039,4.60135,2470.73,2023-10-30T05:44:56Z
2023-10-30T03:45:33Z,42.805,6.029,13.3035,4.60113,2470.717,2023-10-30T05:47:59Z
2023-10-30T03:48:36Z,42.805,6.029,13.3049,4.60121,2470.717,2023-10-30T05:51:02Z
2023-10-30T03:51:39Z,42.805,6.029,13.3037,4.60116,2470.74,2023-10-30T05:54:05Z
2023-10-30T03:54:42Z,42.805,6.029,13.3039,4.60119,2470.763,2023-10-30T05:57:08Z
2023-10-30T03:57:45Z,42.805,6.029,13.3031,4.60110,2470.754,2023-10-30T06:00:11Z
2023-10-30T04:00:49Z,42.805,6.029,13.3036,4.60131,2470.754,2023-10-30T06:03:14Z
2023-10-30T04:03:52Z,42.805,6.029,13.3033,4.60116,2470.754,2023-10-30T06:06:17Z
2023-10-30T04:06:55Z,42.805,6.029,13.3035,4.60121,2470.763,2023-10-30T06:09:21Z
2023-10-30T04:09:58Z,42.805,6.029,13.3035,4.60121,2470.763,2023-10-30T06:12:24Z
2023-10-30T04:13:01Z,42.805,6.029,13.3032,4.60122,2470.773,2023-10-30T06:15:27Z
2023-10-30T04:16:04Z,42.805,6.029,13.3034,4.60115,2470.763,2023-10-30T06:18:30Z
2023-10-30T04:19:07Z,42.805,6.029,13.3036,4.60113,2470.74,2023-10-30T06:21:33Z
2023-10-30T04:22:10Z,42.805,6.029,13.3031,4.60115,2470.777,2023-10-30T06:24:36Z
2023-10-30T04:25:13Z,42.805,6.029,13.3034,4.60119,2470.763,2023-10-30T06:27:39Z
2023-10-30T04:28:16Z,42.805,6.029,13.3033,4.60127,2470.787,2023-10-30T06:30:42Z
2023-10-30T04:31:19Z,42.805,6.029,13.3039,4.60116,2470.74,2023-10-30T06:33:45Z
2023-10-30T04:34:22Z,42.805,6.029,13.3039,4.60117,2470.763,2023-10-30T06:36:48Z
2023-10-30T04:37:26Z,42.805,6.029,13.3039,4.60121,2470.787,2023-10-30T06:39:51Z
2023-10-30T04:40:29Z,42.805,6.029,13.3043,4.60117,2470.763,2023-10-30T06:42:54Z
2023-10-30T04:43:32Z,42.805,6.029,13.3043,4.60127,2470.81,2023-10-30T06:45:57Z
2023-10-30T04:46:35Z,42.805,6.029,13.3036,4.60112,2470.787,2023-10-30T06:49:01Z
2023-10-30T04:49:38Z,42.805,6.029,13.3035,4.60117,2470.8,2023-10-30T06:52:04Z
2023-10-30T04:52:41Z,42.805,6.029,13.3035,4.60115,2470.81,2023-10-30T06:55:07Z
2023-10-30T04:55:44Z,42.805,6.029,13.3040,4.60120,2470.824,2023-10-30T06:58:10Z
2023-10-30T04:58:47Z,42.805,6.029,13.3038,4.60125,2470.81,2023-10-30T07:01:13Z
2023-10-30T05:01:50Z,42.805,6.029,13.3039,4.60119,2470.833,2023-10-30T07:04:16Z
2023-10-30T05:04:53Z,42.805,6.029,13.3041,4.60126,2470.833,2023-10-30T07:07:19Z
2023-10-30T05:07:56Z,42.805,6.029,13.3048,4.60122,2470.81,2023-10-30T07:10:22Z
2023-10-30T05:10:59Z,42.805,6.029,13.3039,4.60133,2470.81,2023-10-30T07:13:25Z
2023-10-30T05:14:03Z,42.805,6.029,13.3032,4.60113,2470.81,2023-10-30T07:16:28Z
2023-10-30T05:17:06Z,42.805,6.029,13.3036,4.60116,2470.857,2023-10-30T07:19:31Z
2023-10-30T05:20:09Z,42.805,6.029,13.3034,4.60114,2470.88,2023-10-30T07:22:34Z
2023-10-30T05:23:12Z,42.805,6.029,13.3031,4.60112,2470.857,2023-10-30T07:25:38Z
2023-10-30T05:26:15Z,42.805,6.029,13.3035,4.60110,2470.857,2023-10-30T07:28:41Z
2023-10-30T05:29:18Z,42.805,6.029,13.3039,4.60118,2470.857,2023-10-30T07:31:44Z
2023-10-30T05:32:21Z,42.805,6.029,13.3033,4.60121,2470.857,2023-10-30T07:34:47Z
2023-10-30T05:35:24Z,42.805,6.029,13.3041,4.60117,2470.857,2023-10-30T07:37:50Z
2023-10-30T05:38:27Z,42.805,6.029,13.3042,4.60119,2470.833,2023-10-30T07:40:53Z
2023-10-30T05:41:30Z,42.805,6.029,13.3033,4.60114,2470.833,2023-10-30T07:43:56Z
2023-10-30T05:44:33Z,42.805,6.029,13.3041,4.60128,2470.88,2023-10-30T07:46:59Z
2023-10-30T05:47:36Z,42.805,6.029,13.3040,4.60124,2470.857,2023-10-30T07:50:02Z
2023-10-30T05:50:40Z,42.805,6.029,13.3040,4.60116,2470.857,2023-10-30T07:53:05Z
2023-10-30T05:53:43Z,42.805,6.029,13.3036,4.60116,2470.88,2023-10-30T07:56:08Z
2023-10-30T05:56:46Z,42.805,6.029,13.3039,4.60137,2470.857,2023-10-30T07:59:11Z
2023-10-30T05:59:49Z,42.805,6.029,13.3048,4.60141,2470.894,2023-10-30T08:02:15Z
2023-10-30T06:02:52Z,42.805,6.029,13.3038,4.60119,2470.88,2023-10-30T08:05:18Z
2023-10-30T06:05:55Z,42.805,6.029,13.3040,4.60120,2470.894,2023-10-30T08:08:21Z
2023-10-30T06:08:58Z,42.805,6.029,13.3040,4.60122,2470.917,2023-10-30T08:11:24Z
2023-10-30T06:12:01Z,42.805,6.029,13.3035,4.60115,2470.917,2023-10-30T08:14:27Z
2023-10-30T06:15:04Z,42.805,6.029,13.3045,4.60125,2470.927,2023-10-30T08:17:30Z
2023-10-30T06:18:07Z,42.805,6.029,13.3041,4.60116,2470.94,2023-10-30T08:20:33Z
2023-10-30T06:21:10Z,42.805,6.029,13.3052,4.60137,2470.917,2023-10-30T08:23:36Z
2023-10-30T06:24:13Z,42.805,6.029,13.3054,4.60141,2470.904,2023-10-30T08:26:39Z
2023-10-30T06:27:16Z,42.805,6.029,13.3051,4.60128,2470.904,2023-10-30T08:29:42Z
2023-10-30T06:30:20Z,42.805,6.029,13.3045,4.60121,2470.927,2023-10-30T08:32:45Z
2023-10-30T06:33:23Z,42.805,6.029,13.3038,4.60127,2470.917,2023-10-30T08:35:48Z
2023-10-30T06:36:26Z,42.805,6.029,13.3043,4.60117,2470.913,2023-10-30T08:38:52Z
2023-10-30T06:39:29Z,42.805,6.029,13.3041,4.60138,2470.917,2023-10-30T08:41:55Z
2023-10-30T06:42:32Z,42.805,6.029,13.3040,4.60125,2470.927,2023-10-30T08:44:58Z
2023-10-30T06:45:35Z,42.805,6.029,13.3048,4.60128,2470.927,2023-10-30T08:48:01Z
2023-10-30T06:48:38Z,42.805,6.029,13.3043,4.60127,2470.94,2023-10-30T08:51:04Z
2023-10-30T06:51:41Z,42.805,6.029,13.3054,4.60120,2470.964,2023-10-30T08:54:07Z
2023-10-30T06:54:44Z,42.805,6.029,13.3054,4.60147,2470.927,2023-10-30T08:57:10Z
2023-10-30T06:57:47Z,42.805,6.029,13.3043,4.60126,2470.964,2023-10-30T09:00:13Z
2023-10-30T07:00:50Z,42.805,6.029,13.3043,4.60127,2470.95,2023-10-30T09:03:16Z
2023-10-30T07:03:53Z,42.805,6.029,13.3040,4.60119,2470.95,2023-10-30T09:06:19Z
2023-10-30T07:06:56Z,42.805,6.029,13.3044,4.60127,2470.95,2023-10-30T09:09:22Z
2023-10-30T07:10:00Z,42.805,6.029,13.3039,4.60116,2470.964,2023-10-30T09:12:25Z
2023-10-30T07:13:03Z,42.805,6.029,13.3043,4.60140,2470.95,2023-10-30T09:15:28Z
2023-10-30T07:16:06Z,42.805,6.029,13.3044,4.60144,2470.964,2023-10-30T09:18:32Z
2023-10-30T07:19:09Z,42.805,6.029,13.3063,4.60135,2470.936,2023-10-30T09:21:35Z
2023-10-30T07:22:12Z,42.805,6.029,13.3058,4.60147,2470.94,2023-10-30T09:24:38Z
2023-10-30T07:25:15Z,42.805,6.029,13.3054,4.60142,2470.927,2023-10-30T09:27:41Z
2023-10-30T07:28:18Z,42.805,6.029,13.3040,4.60115,2470.88,2023-10-30T09:30:44Z
2023-10-30T07:31:21Z,42.805,6.029,13.3054,4.60135,2470.927,2023-10-30T09:33:47Z
2023-10-30T07:34:24Z,42.805,6.029,13.3046,4.60145,2470.964,2023-10-30T09:36:50Z
2023-10-30T07:37:27Z,42.805,6.029,13.3037,4.60124,2470.964,2023-10-30T09:39:53Z
2023-10-30T07:40:30Z,42.805,6.029,13.3044,4.60138,2470.927,2023-10-30T09:42:56Z
2023-10-30T07:43:33Z,42.805,6.029,13.3037,4.60117,2470.987,2023-10-30T09:45:59Z
2023-10-30T07:46:37Z,42.805,6.029,13.3056,4.60134,2470.95,2023-10-30T09:49:02Z
2023-10-30T07:49:40Z,42.805,6.029,13.3038,4.60132,2470.95,2023-10-30T09:52:05Z
2023-10-30T07:52:43Z,42.805,6.029,13.3040,4.60122,2470.927,2023-10-30T09:55:09Z
2023-10-30T07:55:46Z,42.805,6.029,13.3038,4.60137,2470.973,2023-10-30T09:58:12Z
2023-10-30T07:58:49Z,42.805,6.029,13.3039,4.60120,2470.964,2023-10-30T10:01:15Z
2023-10-30T08:01:52Z,42.805,6.029,13.3043,4.60143,2470.94,2023-10-30T10:04:18Z
2023-10-30T08:04:55Z,42.805,6.029,13.3042,4.60142,2470.973,2023-10-30T10:07:21Z
2023-10-30T08:07:58Z,42.805,6.029,13.3040,4.60137,2470.94,2023-10-30T10:10:24Z
2023-10-30T08:11:01Z,42.805,6.029,13.3053,4.60152,2470.987,2023-10-30T10:13:27Z
2023-10-30T08:14:04Z,42.805,6.029,13.3058,4.60143,2470.95,2023-10-30T10:16:30Z
2023-10-30T08:17:07Z,42.805,6.029,13.3046,4.60147,2470.987,2023-10-30T10:19:33Z
2023-10-30T08:20:10Z,42.805,6.029,13.3063,4.60141,2470.973,2023-10-30T10:22:36Z
2023-10-30T08:23:14Z,42.805,6.029,13.3036,4.60125,2470.964,2023-10-30T10:25:39Z
2023-10-30T08:26:17Z,42.805,6.029,13.3041,4.60157,2470.927,2023-10-30T10:28:42Z
2023-10-30T08:29:20Z,42.805,6.029,13.3052,4.60142,2470.95,2023-10-30T10:31:46Z
2023-10-30T08:32:23Z,42.805,6.029,13.3050,4.60134,2470.95,2023-10-30T10:34:49Z
2023-10-30T08:35:26Z,42.805,6.029,13.3046,4.60133,2470.964,2023-10-30T10:37:52Z
2023-10-30T08:38:29Z,42.805,6.029,13.3039,4.60145,2470.927,2023-10-30T10:40:55Z
2023-10-30T08:41:32Z,42.805,6.029,13.3033,4.60117,2470.95,2023-10-30T10:43:58Z
2023-10-30T08:44:35Z,42.805,6.029,13.3039,4.60127,2470.927,2023-10-30T10:47:01Z
2023-10-30T08:47:38Z,42.805,6.029,13.3048,4.60133,2470.927,2023-10-30T10:50:04Z
2023-10-30T08:50:41Z,42.805,6.029,13.3039,4.60135,2470.927,2023-10-30T10:53:07Z
2023-10-30T08:53:44Z,42.805,6.029,13.3045,4.60145,2470.927,2023-10-30T10:56:10Z
2023-10-30T08:56:47Z,42.805,6.029,13.3054,4.60150,2470.94,2023-10-30T10:59:13Z
2023-10-30T08:59:51Z,42.805,6.029,13.3039,4.60128,2470.927,2023-10-30T11:02:16Z
2023-10-30T09:02:54Z,42.805,6.029,13.3049,4.60140,2470.917,2023-10-30T11:05:19Z
2023-10-30T09:05:57Z,42.805,6.029,13.3041,4.60125,2470.94,2023-10-30T11:08:23Z
2023-10-30T09:09:00Z,42.805,6.029,13.3046,4.60152,2470.927,2023-10-30T11:11:26Z
2023-10-30T09:12:03Z,42.805,6.029,13.3046,4.60144,2470.89,2023-10-30T11:14:29Z
2023-10-30T09:15:06Z,42.805,6.029,13.3045,4.60153,2470.94,2023-10-30T11:17:32Z
2023-10-30T09:18:09Z,42.805,6.029,13.3041,4.60121,2470.927,2023-10-30T11:20:35Z
2023-10-30T09:21:12Z,42.805,6.029,13.3045,4.60135,2470.927,2023-10-30T11:23:38Z
2023-10-30T09:24:15Z,42.805,6.029,13.3039,4.60121,2470.927,2023-10-30T11:26:41Z
2023-10-30T09:27:18Z,42.805,6.029,13.3041,4.60139,2470.904,2023-10-30T11:29:44Z
2023-10-30T09:30:20Z,42.805,6.029,13.3043,4.60126,2470.964,2023-10-30T11:32:45Z
2023-10-30T09:33:23Z,42.805,6.029,13.3038,4.60125,2470.927,2023-10-30T11:35:48Z
2023-10-30T09:36:26Z,42.805,6.029,13.3044,4.60135,2470.927,2023-10-30T11:38:52Z
2023-10-30T09:39:29Z,42.805,6.029,13.3046,4.60142,2470.927,2023-10-30T11:41:55Z
2023-10-30T09:42:32Z,42.805,6.029,13.3046,4.60146,2470.964,2023-10-30T11:44:58Z
2023-10-30T09:45:35Z,42.805,6.029,13.3039,4.60142,2470.927,2023-10-30T11:48:01Z
2023-10-30T09:48:38Z,42.805,6.029,13.3048,4.60132,2470.904,2023-10-30T11:51:04Z
2023-10-30T09:51:41Z,42.805,6.029,13.3044,4.60127,2470.927,2023-10-30T11:54:07Z
2023-10-30T09:54:44Z,42.805,6.029,13.3041,4.60127,2470.904,2023-10-30T11:57:10Z
2023-10-30T09:57:47Z,42.805,6.029,13.3047,4.60128,2470.894,2023-10-30T12:00:13Z
2023-10-30T10:00:50Z,42.805,6.029,13.3043,4.60122,2470.88,2023-10-30T12:03:16Z
2023-10-30T10:03:54Z,42.805,6.029,13.3041,4.60139,2470.917,2023-10-30T12:06:19Z
2023-10-30T10:06:57Z,42.805,6.029,13.3039,4.60120,2470.89,2023-10-30T12:09:22Z
2023-10-30T10:10:00Z,42.805,6.029,13.3040,4.60131,2470.904,2023-10-30T12:12:26Z
2023-10-30T10:13:03Z,42.805,6.029,13.3041,4.60131,2470.904,2023-10-30T12:15:29Z
2023-10-30T10:16:06Z,42.805,6.029,13.3041,4.60134,2470.927,2023-10-30T12:18:32Z
2023-10-30T10:19:09Z,42.805,6.029,13.3045,4.60140,2470.927,2023-10-30T12:21:35Z
2023-10-30T10:22:12Z,42.805,6.029,13.3048,4.60126,2470.88,2023-10-30T12:24:38Z
2023-10-30T10:25:15Z,42.805,6.029,13.3041,4.60132,2470.894,2023-10-30T12:27:41Z
2023-10-30T10:28:18Z,42.805,6.029,13.3035,4.60120,2470.871,2023-10-30T12:30:44Z
2023-10-30T10:31:21Z,42.805,6.029,13.3047,4.60144,2470.857,2023-10-30T12:33:47Z
2023-10-30T10:34:24Z,42.805,6.029,13.3039,4.60120,2470.94,2023-10-30T12:36:50Z
2023-10-30T10:37:27Z,42.805,6.029,13.3036,4.60122,2470.904,2023-10-30T12:39:53Z
2023-10-30T10:40:31Z,42.805,6.029,13.3039,4.60147,2470.917,2023-10-30T12:42:56Z
2023-10-30T10:43:34Z,42.805,6.029,13.3056,4.60152,2470.88,2023-10-30T12:45:59Z
2023-10-30T10:46:37Z,42.805,6.029,13.3043,4.60127,2470.871,2023-10-30T12:49:03Z
2023-10-30T10:49:40Z,42.805,6.029,13.3044,4.60121,2470.927,2023-10-30T12:52:06Z
2023-10-30T10:52:43Z,42.805,6.029,13.3047,4.60125,2470.857,2023-10-30T12:55:09Z
2023-10-30T10:55:46Z,42.805,6.029,13.3039,4.60123,2470.871,2023-10-30T12:58:12Z
2023-10-30T10:58:49Z,42.805,6.029,13.3039,4.60122,2470.871,2023-10-30T13:01:15Z
2023-10-30T11:01:52Z,42.805,6.029,13.3037,4.60121,2470.894,2023-10-30T13:04:18Z
2023-10-30T11:04:55Z,42.805,6.029,13.3037,4.60119,2470.871,2023-10-30T13:07:21Z
2023-10-30T11:07:58Z,42.805,6.029,13.3039,4.60125,2470.857,2023-10-30T13:10:24Z
2023-10-30T11:11:01Z,42.805,6.029,13.3048,4.60138,2470.894,2023-10-30T13:13:27Z
2023-10-30T11:14:04Z,42.805,6.029,13.3044,4.60135,2470.847,2023-10-30T13:16:30Z
2023-10-30T11:17:08Z,42.805,6.029,13.3041,4.60122,2470.847,2023-10-30T13:19:33Z
2023-10-30T11:20:11Z,42.805,6.029,13.3046,4.60125,2470.88,2023-10-30T13:22:36Z
2023-10-30T11:23:14Z,42.805,6.029,13.3041,4.60132,2470.88,2023-10-30T13:25:40Z
2023-10-30T11:26:17Z,42.805,6.029,13.3045,4.60157,2470.88,2023-10-30T13:28:43Z
2023-10-30T11:29:20Z,42.805,6.029,13.3049,4.60126,2470.833,2023-10-30T13:31:46Z
2023-10-30T11:32:23Z,42.805,6.029,13.3053,4.60151,2470.847,2023-10-30T13:34:49Z
2023-10-30T11:35:26Z,42.805,6.029,13.3035,4.60127,2470.857,2023-10-30T13:37:52Z
2023-10-30T11:38:29Z,42.805,6.029,13.3041,4.60123,2470.857,2023-10-30T13:40:55Z
2023-10-30T11:41:32Z,42.805,6.029,13.3041,4.60123,2470.88,2023-10-30T13:43:58Z
2023-10-30T11:44:35Z,42.805,6.029,13.3041,4.60129,2470.833,2023-10-30T13:47:01Z
2023-10-30T11:47:38Z,42.805,6.029,13.3043,4.60122,2470.857,2023-10-30T13:50:04Z
2023-10-30T11:50:42Z,42.805,6.029,13.3037,4.60116,2470.857,2023-10-30T13:53:07Z
2023-10-30T11:53:45Z,42.805,6.029,13.3039,4.60115,2470.857,2023-10-30T13:56:10Z
2023-10-30T11:56:48Z,42.805,6.029,13.3040,4.60119,2470.857,2023-10-30T13:59:14Z
2023-10-30T11:59:51Z,42.805,6.029,13.3045,4.60132,2470.833,2023-10-30T14:02:17Z
2023-10-30T12:02:54Z,42.805,6.029,13.3054,4.60122,2470.833,2023-10-30T14:05:20Z
2023-10-30T12:05:57Z,42.805,6.029,13.3041,4.60132,2470.847,2023-10-30T14:08:23Z
2023-10-30T12:09:00Z,42.805,6.029,13.3036,4.60121,2470.871,2023-10-30T14:11:26Z
2023-10-30T12:12:03Z,42.805,6.029,13.3046,4.60133,2470.82,2023-10-30T14:14:29Z
2023-10-30T12:15:06Z,42.805,6.029,13.3044,4.60144,2470.824,2023-10-30T14:17:32Z
2023-10-30T12:18:09Z,42.805,6.029,13.3056,4.60125,2470.847,2023-10-30T14:20:35Z
2023-10-30T12:21:12Z,42.805,6.029,13.3045,4.60145,2470.81,2023-10-30T14:23:38Z
2023-10-30T12:24:15Z,42.805,6.029,13.3046,4.60137,2470.81,2023-10-30T14:26:41Z
2023-10-30T12:27:19Z,42.805,6.029,13.3042,4.60125,2470.81,2023-10-30T14:29:44Z
2023-10-30T12:30:22Z,42.805,6.029,13.3040,4.60117,2470.81,2023-10-30T14:32:47Z
2023-10-30T12:33:25Z,42.805,6.029,13.3041,4.60123,2470.847,2023-10-30T14:35:51Z
2023-10-30T12:36:28Z,42.805,6.029,13.3037,4.60116,2470.824,2023-10-30T14:38:54Z
2023-10-30T12:39:31Z,42.805,6.029,13.3043,4.60138,2470.833,2023-10-30T14:41:57Z
2023-10-30T12:42:34Z,42.805,6.029,13.3042,4.60128,2470.763,2023-10-30T14:45:00Z
2023-10-30T12:45:37Z,42.805,6.029,13.3038,4.60117,2470.824,2023-10-30T14:48:03Z
2023-10-30T12:48:40Z,42.805,6.029,13.3038,4.60122,2470.81,2023-10-30T14:51:06Z
2023-10-30T12:51:43Z,42.805,6.029,13.3039,4.60131,2470.81,2023-10-30T14:54:09Z
2023-10-30T12:54:46Z,42.805,6.029,13.3036,4.60119,2470.787,2023-10-30T14:57:12Z
2023-10-30T12:57:49Z,42.805,6.029,13.3037,4.60119,2470.824,2023-10-30T15:00:15Z
2023-10-30T13:00:52Z,42.805,6.029,13.3037,4.60114,2470.787,2023-10-30T15:03:18Z
2023-10-30T13:03:56Z,42.805,6.029,13.3042,4.60138,2470.763,2023-10-30T15:06:21Z
2023-10-30T13:06:59Z,42.805,6.029,13.3042,4.60126,2470.8,2023-10-30T15:09:24Z
2023-10-30T13:10:02Z,42.805,6.029,13.3039,4.60127,2470.787,2023-10-30T15:12:28Z
2023-10-30T13:13:05Z,42.805,6.029,13.3039,4.60124,2470.763,2023-10-30T15:15:31Z
2023-10-30T13:16:08Z,42.805,6.029,13.3036,4.60115,2470.74,2023-10-30T15:18:34Z
2023-10-30T13:19:11Z,42.805,6.029,13.3036,4.60127,2470.8,2023-10-30T15:21:37Z
2023-10-30T13:22:14Z,42.805,6.029,13.3042,4.60132,2470.787,2023-10-30T15:24:40Z
2023-10-30T13:25:17Z,42.805,6.029,13.3047,4.60132,2470.787,2023-10-30T15:27:43Z
2023-10-30T13:28:20Z,42.805,6.029,13.3048,4.60125,2470.787,2023-10-30T15:30:46Z
2023-10-30T13:31:22Z,42.805,6.029,13.3039,4.60125,2470.763,2023-10-30T15:33:48Z
2023-10-30T13:34:25Z,42.805,6.029,13.3044,4.60144,2470.787,2023-10-30T15:36:51Z
2023-10-30T13:37:28Z,42.805,6.029,13.3036,4.60132,2470.74,2023-10-30T15:39:54Z
2023-10-30T13:40:31Z,42.805,6.029,13.3039,4.60120,2470.754,2023-10-30T15:42:57Z
2023-10-30T13:43:35Z,42.805,6.029,13.3043,4.60127,2470.763,2023-10-30T15:46:00Z
2023-10-30T13:46:38Z,42.805,6.029,13.3039,4.60122,2470.763,2023-10-30T15:49:03Z
2023-10-30T13:49:41Z,42.805,6.029,13.3041,4.60125,2470.74,2023-10-30T15:52:07Z
2023-10-30T13:52:44Z,42.805,6.029,13.3041,4.60123,2470.787,2023-10-30T15:55:10Z
2023-10-30T13:55:47Z,42.805,6.029,13.3039,4.60132,2470.763,2023-10-30T15:58:13Z
2023-10-30T13:58:50Z,42.805,6.029,13.3048,4.60122,2470.777,2023-10-30T16:01:16Z
2023-10-30T14:01:53Z,42.805,6.029,13.3039,4.60139,2470.787,2023-10-30T16:04:19Z
2023-10-30T14:04:56Z,42.805,6.029,13.3033,4.60122,2470.74,2023-10-30T16:07:22Z
2023-10-30T14:07:59Z,42.805,6.029,13.3043,4.60121,2470.787,2023-10-30T16:10:25Z
2023-10-30T14:11:02Z,42.805,6.029,13.3036,4.60109,2470.754,2023-10-30T16:13:28Z
2023-10-30T14:14:05Z,42.805,6.029,13.3040,4.60117,2470.763,2023-10-30T16:16:31Z
2023-10-30T14:17:08Z,42.805,6.029,13.3045,4.60115,2470.777,2023-10-30T16:19:34Z
2023-10-30T14:20:12Z,42.805,6.029,13.3031,4.60117,2470.777,2023-10-30T16:22:37Z
2023-10-30T14:23:15Z,42.805,6.029,13.3039,4.60111,2470.763,2023-10-30T16:25:40Z
2023-10-30T14:26:18Z,42.805,6.029,13.3034,4.60117,2470.754,2023-10-30T16:28:44Z
2023-10-30T14:29:21Z,42.805,6.029,13.3037,4.60111,2470.754,2023-10-30T16:31:47Z
2023-10-30T14:32:24Z,42.805,6.029,13.3036,4.60119,2470.74,2023-10-30T16:34:50Z
2023-10-30T14:35:27Z,42.805,6.029,13.3034,4.60117,2470.777,2023-10-30T16:37:53Z
2023-10-30T14:38:30Z,42.805,6.029,13.3043,4.60125,2470.763,2023-10-30T16:40:56Z
2023-10-30T14:41:33Z,42.805,6.029,13.3040,4.60121,2470.74,2023-10-30T16:43:59Z
2023-10-30T14:44:36Z,42.805,6.029,13.3041,4.60120,2470.763,2023-10-30T16:47:02Z
2023-10-30T14:47:39Z,42.805,6.029,13.3034,4.60120,2470.763,2023-10-30T16:50:05Z
2023-10-30T14:50:42Z,42.805,6.029,13.3038,4.60119,2470.787,2023-10-30T16:53:08Z
2023-10-30T14:53:45Z,42.805,6.029,13.3041,4.60129,2470.74,2023-10-30T16:56:11Z
2023-10-30T14:56:49Z,42.805,6.029,13.3037,4.60115,2470.777,2023-10-30T16:59:14Z
2023-10-30T14:59:52Z,42.805,6.029,13.3042,4.60116,2470.73,2023-10-30T17:02:18Z
2023-10-30T15:02:55Z,42.805,6.029,13.3035,4.60112,2470.763,2023-10-30T17:05:21Z